Weather History for Roatan, Honduras

Change the Weather History Date:

Friday, March 22, 2013

  Actual Average Record
Temperature  
Mean Temperature 82 °F -  
Max Temperature 87 °F 84 °F 88 °F (2014)
Min Temperature 76 °F 75 °F 68 °F (2011)
Cooling Degree Days 16    
Growing Degree Days 32 (Base 50)    
Moisture  
Dew Point 74 °F    
Average Humidity 72    
Maximum Humidity 89    
Minimum Humidity 38    
Precipitation  
Precipitation 0.00 in - - ()
Sea Level Pressure  
Sea Level Pressure 29.81 in    
Wind  
Wind Speed 14 mph ()    
Max Wind Speed 22 mph    
Max Gust Speed -    
Visibility 6.4 miles    
Events      
Averages and records for this station are not official NWS values.
T = Trace of Precipitation, MM = Missing Value Source: Averaged Metar Reports

Daily Weather History Graph

Daily Weather History Graph

Search for Another Location

Airport:

Trip Planner

Search our weather history database for the weather conditions in past years. The results will help you decide how hot, cold, wet, or windy it might be!

Date:

Astronomy

Mar. 22, 2013 Rise Set
Actual Time 5:48 AM CST 5:57 PM CST
Civil Twilight 5:26 AM CST 6:18 PM CST
Nautical Twilight 5:01 AM CST 6:44 PM CST
Astronomical Twilight 4:36 AM CST 7:09 PM CST
Moon 1:59 PM CST 2:10 AM CST
Length of Visible Light 12h 51m
Length of Day
12h 08m
Waxing Gibbous, 78% of the Moon is Illuminated
Mar 22
Waxing Gibbous
Mar 27
Full
Apr 2
Last Quarter
Apr 10
New
Apr 18
First Quarter

Hourly Weather History & Observations

Time (CST) Temp. Heat Index Dew Point Humidity Pressure Visibility Wind Dir Wind Speed Gust Speed Precip Events Conditions
6:00 AM 79 °F - 74 °F 81% 29.83 in 7 mi East 13.8 mph - -   Smoke
6:00 AM 78.8 °F - 75.2 °F 89% 29.83 in 6.2 mi East 13.8 mph - N/A   Scattered Clouds
7:00 AM 80.6 °F 86.2 °F 75.2 °F 84% 29.83 in 6.2 mi East 13.8 mph - N/A   Scattered Clouds
8:00 AM 82.4 °F 88.2 °F 73.4 °F 74% 29.86 in 6.2 mi East 13.8 mph - N/A   Partly Cloudy
9:00 AM 84 °F - 74 °F 66% 29.88 in 6 mi East 13.8 mph - -   Smoke
9:00 AM 84.2 °F 92.3 °F 75.2 °F 74% 29.86 in 6.2 mi East 13.8 mph - N/A   Partly Cloudy
10:00 AM 84.2 °F 92.3 °F 75.2 °F 74% 29.86 in 6.2 mi East 13.8 mph - N/A   Partly Cloudy
11:00 AM 86.0 °F 95.1 °F 75.2 °F 70% 29.86 in 6.2 mi East 13.8 mph - N/A   Partly Cloudy
12:00 PM 86 °F - 75 °F 62% 29.84 in 7 mi East 15.0 mph - -   Smoke
12:00 PM 86.0 °F 95.1 °F 75.2 °F 70% 29.83 in 6.2 mi East 15.0 mph - N/A   Partly Cloudy
1:00 PM 86.0 °F 95.1 °F 75.2 °F 70% 29.80 in 6.2 mi East 17.3 mph - N/A   Partly Cloudy
2:00 PM 86.0 °F 95.1 °F 75.2 °F 70% 29.77 in 6.2 mi East 17.3 mph - N/A   Partly Cloudy
3:00 PM 86 °F - 64 °F 38% 29.77 in 7 mi ENE 18.4 mph - -   Haze
3:00 PM 86.0 °F 95.1 °F 75.2 °F 70% 29.74 in 6.2 mi ENE 18.4 mph - N/A   Partly Cloudy
4:00 PM 86.0 °F 95.1 °F 75.2 °F 70% 29.74 in 6.2 mi East 21.9 mph - N/A   Partly Cloudy
6:00 PM 82 °F - 73 °F 68% 29.78 in 7 mi ENE 19.6 mph - -   Haze
6:00 PM 82.4 °F 88.2 °F 73.4 °F 74% 29.77 in 6.2 mi ENE 19.6 mph - N/A   Partly Cloudy
7:00 PM 80.6 °F 85.4 °F 73.4 °F 79% 29.77 in 6.2 mi ENE 21.9 mph - N/A   Partly Cloudy
8:00 PM 80.6 °F 85.4 °F 73.4 °F 79% 29.80 in 6.2 mi ENE 19.6 mph - N/A   Scattered Clouds